Location: Lansingburgh
(42.7845°N, 73.6696°W)
Time: 14:55:06
(UTC+00:00)

CZ-2D R/B - Pass Details

Date: 24 January 2020
Orbit: 522 x 538 km, 97.4° (Epoch: 22 February)

Event Time Altitude Azimuth Distance (km) Brightness Sun altitude
Rises 23:31:47 0° 164° (SSE) 2,649 6.8 -17.4°
Reaches altitude 10° 23:33:52 10° 164° (SSE) 1,767 5.8 -17.7°
Maximum altitude 23:37:41 82° 78° (ENE) 541 3.1 -18.4°
Drops below altitude 10° 23:41:33 10° 350° (N) 1,791 5.9 -19.1°
Sets 23:43:41 0° 349° (N) 2,689 6.9 -19.5°
